Regional Weather Roundup
Issued by NWS

Home | Current Version | Previous Version | Text Only | Print | Product List | Glossary Off
Versions: 1 2 3 4 5 6 7 8 9 10 11 12 13 14 15 16 17 18 19 20 21 22 23 24 25 26 27 28 29 30 31 32 33 34 35 36 37 38 39 40 41 42 43 44 45 46 47 48 49 50

000
ASUS45 KPSR 031710
RWRAZ

ARIZONA REGIONAL HOURLY WEATHER ROUNDUP
NATIONAL WEATHER SERVICE PHOENIX AZ
1000 AM MST TUE MAR 03 2015

NOTE: FAIR INDICATES FEW OR NO CLOUDS BELOW 12,000 FEET WITH NO
SIGNIFICANT WEATHER AND/OR OBSTRUCTIONS TO VISIBILITY.

AZZ001>003-036-031800-
NORTHWEST ARIZONA

CITY           SKY/WX    TMP DP  RH WIND       PRES   REMARKS
BULLHEAD CITY  SUNNY     50  45  81 CALM      29.99R
KINGMAN        SUNNY     45  35  68 W5        29.94R
$$

AZZ004>008-015-016-018-031800-
NORTH CENTRAL ARIZONA

CITY           SKY/WX    TMP DP  RH WIND       PRES   REMARKS
GRAND CANYON   PTSUNNY   28  25  88 SW7       29.90F WCI  21
PRESCOTT       MOSUNNY   41  30  65 VRB6      29.93S
FLAGSTAFF      NOT AVBL
PAYSON         LGT RAIN  37  34  87 S6        29.97R WCI  33
PAGE           CLOUDY    41  30  65 CALM      29.88
$$

AZZ009>014-017-031800-
NORTHEAST ARIZONA

CITY           SKY/WX    TMP DP  RH WIND       PRES   REMARKS
WINSLOW        MOSUNNY   43  29  57 CALM      29.93R
SAINT JOHNS    CLOUDY    40  29  64 S7        29.91F
WINDOW ROCK    PTSUNNY   36  28  73 S5        29.89F WCI  32
SHOW LOW       SUNNY     34  25  69 W5        29.95S WCI  30
$$

AZZ023-031800-
GREATER PHOENIX AREA

CITY           SKY/WX    TMP DP  RH WIND       PRES   REMARKS
PHOENIX        MOSUNNY   56  48  74 SE5       29.93F
BUCKEYE        SUNNY     54  54 100 CALM      29.96R
GLENDALE       MOSUNNY   55  46  71 E5        29.95F
LUKE AFB       MOSUNNY   56  48  73 NE6       29.93F
DEER VALLEY    SUNNY     55  43  63 E5        29.92F
SCOTTSDALE     SUNNY     54  46  74 SE6       29.96S
MESA-FALCON    MOSUNNY   50  43  76 N7        29.94S
MESA-GATEWAY   MOSUNNY   52  46  82 CALM      29.97R
$$

AZZ027-028-031800-
SOUTHWEST MARICOPA COUNTY AND PINAL COUNTY

CITY           SKY/WX    TMP DP  RH WIND       PRES   REMARKS
CASA GRANDE    CLOUDY    46  45  93 CALM      29.97S VSB 1/2
GILA BEND      SUNNY     58  49  72 W2        29.94S
$$

AZZ503-504-507>509-031800-
SOUTHEAST ARIZONA

CITY           SKY/WX    TMP DP  RH WIND       PRES   REMARKS
TUCSON         MOSUNNY   54  42  64 CALM      29.96S
DAVIS-MONTHAN  SUNNY     52  40  63 S2        29.94S
RYAN FIELD       N/A     54  50  87 NW3       29.96S
NOGALES        MOSUNNY   54  36  50 VRB6      29.94S
SIERRA VISTA   MOSUNNY   48  37  66 CALM      29.93F
DOUGLAS        PTSUNNY   50  46  86 S8        29.95S
SAFFORD        SUNNY     50  39  66 CALM      29.93S
$$

AZZ020-021-025-026-031-031800-
SOUTHWEST ARIZONA

CITY           SKY/WX    TMP DP  RH WIND       PRES   REMARKS
YUMA           MOSUNNY   59  45  59 CALM      29.96R
$$

CAZ031-033-041-043-047-048-061-031800-
SOUTHERN CALIFORNIA

CITY           SKY/WX    TMP DP  RH WIND       PRES   REMARKS
DOWNTOWN L.A.  SUNNY     57  42  57 CALM      29.97R
L.A. AIRPORT   MOSUNNY   56  43  61 VRB6      29.98R
SAN DIEGO      MOSUNNY   57  44  62 SW3       29.97R
BURBANK        SUNNY     52  39  61 CALM      29.97R
ONTARIO        MOSUNNY   51  39  63 SE5       29.97R
RIVERSIDE      MOSUNNY   52  41  66 NE3       29.98R
PALM SPRINGS   SUNNY     57  36  45 CALM      29.98R
EL CENTRO NAS  MOSUNNY   56  43  61 W3        29.97R
IMPERIAL       SUNNY     56  46  69 W6        29.96
BLYTHE         SUNNY     53  46  77 NW3       29.96S
NEEDLES        SUNNY     55  42  61 CALM      29.96R
$$

NVZ020-UTZ003-031800-
SOUTHERN NEVADA-UTAH

CITY           SKY/WX    TMP DP  RH WIND       PRES   REMARKS
LAS VEGAS      MOSUNNY   51  36  56 CALM      29.91R
SALT LAKE CITY SNOW      31  30  96 N14       29.86R VSB 1/4 WCI  21
$$

NMZ009-TXZ055-031800-
NEW MEXICO-WEST TEXAS

CITY           SKY/WX    TMP DP  RH WIND       PRES   REMARKS
ALBUQUERQUE    PTSUNNY   45  27  49 CALM      29.93S
EL PASO        LGT RAIN  52  48  86 NE8       29.92S
$$


........................KEY........................
SKY/WX - SKY CONDITION/WEATHER
TMP    - TEMPERATURE IN FAHRENHEIT
DP     - DEW POINT IN FAHRENHEIT
RH     - RELATIVE HUMIDITY IN PERCENT
WIND   - DIRECTION AND SPEED IN MILES PER HOUR (MPH)
VRB    - VARIABLE WIND DIRECTION
PRES   - MEAN SEA LEVEL PRESSURE IN INCHES OF MERCURY
         F - FALLING PRESSURE   R - RISING PRESSURE
         S - STEADY PRESSURE
VSB    - VISIBILITY IN MILES
HX     - HEAT INDEX IN FAHRENHEIT
WCI    - WIND CHILL INDEX IN FAHRENHEIT
TC     - TEMPERATURE IN CELSIUS WHICH IS ALSO KNOWN AS
         TEMPERATURE IN CENTIGRADE
AFB    - AIR FORCE BASE
         LUKE AFB IS LUKE AIR FORCE BASE
         DAVIS-MONTHAN IS DAVIS-MONTHAN AIR FORCE BASE
NAS    - NAVAL AIR STATION
         EL CENTRO NAS IS EL CENTRO NAVAL AIR STATION
N/A    - NOT AVAILABLE



USA.gov is the U.S. government's official web portal to all federal, state and local government web resources and services.